Location: Maccacari
(45.1333°N, 11.1333°E)
Time: 08:39:03
(UTC+00:00)

CZ-2C R/B - Pass Details

Date: 18 September 2020
Orbit: 640 x 704 km, 98.4° (Epoch: 30 October)

Event Time Altitude Azimuth Distance (km) Brightness Sun altitude
Rises 19:59:27 0° 10° (N) 2,962 7.4 -27.3°
Reaches altitude 10° 20:01:40 10° 7° (N) 2,051 6.5 -27.6°
Enters shadow 20:05:30 55° 322° (NW) 786 4.3 -28.2°
